Winner, SD

3:44 AM CST on December 08, 2016 (GMT -0600)
Winner

Weather History for KICR - September, 2013

Change the Weather History Date:

Wednesday, September 25, 2013

  Actual Average Record
Temperature  
Mean Temperature 67 °F 60 °F  
Max Temperature 82 °F 73 °F 93 °F (2014)
Min Temperature 52 °F 47 °F 44 °F (2012)
Degree Days  
Heating Degree Days 0 7  
Month to date heating degree days 29 90  
Since 1 July heating degree days 36 104  
Cooling Degree Days 2 1  
Month to date cooling degree days 203 96  
Year to date cooling degree days 994 902  
Growing Degree Days 17 (Base 50)    
Moisture  
Dew Point 51 °F    
Average Humidity 58    
Maximum Humidity 83    
Minimum Humidity 33    
Precipitation  
Precipitation 0.00 in 0.07 in 0.00 in (2016)
Month to date precipitation 0.38 1.69  
Year to date precipitation 16.37 18.69  
Sea Level Pressure  
Sea Level Pressure 29.68 in    
Wind  
Wind Speed 19 mph (SSE)    
Max Wind Speed 32 mph    
Max Gust Speed 43 mph    
Visibility 10 miles    
Events      
T = Trace of Precipitation, MM = Missing Value Source: NWS Daily Summary

Daily Weather History Graph

Daily Weather History Graph

Search for Another Location

Airport or City:

Trip Planner

Search our weather history database for the weather conditions in past years. The results will help you decide how hot, cold, wet, or windy it might be!

Date:

Astronomy

Sep. 25, 2013 Rise Set
Actual Time 7:30 AM CDT 7:30 PM CDT
Civil Twilight 7:01 AM CDT 7:59 PM CDT
Nautical Twilight 6:28 AM CDT 8:32 PM CDT
Astronomical Twilight 5:54 AM CDT 9:06 PM CDT
Moon 11:29 PM CDT (9/25) 1:46 PM CDT (9/25)
Length of Visible Light 12h 57m
Length of Day
12h 00m
Waning Gibbous, 64% of the Moon is Illuminated
Sep 25
Waning Gibbous
Sep 26
Last Quarter
Oct 4
New
Oct 11
First Quarter
Oct 18
Full

Hourly Weather History & Observations

Time (CDT) Temp. Dew Point Humidity Pressure Visibility Wind Dir Wind Speed Gust Speed Precip Events Conditions
12:53 AM 53.1 °F 46.0 °F 77% 29.87 in 10.0 mi SSE 4.6 mph - N/A   Clear
1:53 AM 57.0 °F 48.9 °F 74% 29.86 in 10.0 mi South 10.4 mph - N/A   Clear
2:53 AM 57.0 °F 48.9 °F 74% 29.83 in 10.0 mi SSE 6.9 mph - N/A   Clear
3:53 AM 53.1 °F 48.0 °F 83% 29.81 in 10.0 mi SSE 6.9 mph - N/A   Clear
4:53 AM 57.9 °F 51.1 °F 78% 29.81 in 10.0 mi South 12.7 mph - N/A   Clear
5:53 AM 57.9 °F 51.1 °F 78% 29.79 in 10.0 mi South 9.2 mph - N/A   Clear
6:53 AM 57.0 °F 51.1 °F 81% 29.80 in 10.0 mi SE 6.9 mph - N/A   Clear
7:53 AM 57.9 °F 52.0 °F 81% 29.80 in 10.0 mi SSE 10.4 mph - N/A   Clear
8:53 AM 61.0 °F 53.1 °F 75% 29.78 in 10.0 mi South 17.3 mph 24.2 mph N/A   Clear
9:53 AM 64.9 °F 53.1 °F 65% 29.76 in 10.0 mi South 19.6 mph 32.2 mph N/A   Clear
10:53 AM 70.0 °F 54.0 °F 57% 29.75 in 10.0 mi South 25.3 mph 39.1 mph N/A   Clear
11:53 AM 73.0 °F 52.0 °F 48% 29.73 in 10.0 mi SSE 24.2 mph 38.0 mph N/A   Clear
12:53 PM 75.9 °F 50.0 °F 40% 29.69 in 10.0 mi SE 25.3 mph 33.4 mph N/A   Clear
1:53 PM 80.1 °F 48.0 °F 32% 29.65 in 10.0 mi SE 23.0 mph 35.7 mph N/A   Clear
2:53 PM 81.0 °F 48.0 °F 31% 29.60 in 10.0 mi SSE 25.3 mph 35.7 mph N/A   Clear
3:53 PM 81.0 °F 48.9 °F 33% 29.56 in 10.0 mi SSE 26.5 mph 39.1 mph N/A   Clear
4:53 PM 80.1 °F 48.0 °F 32% 29.55 in 10.0 mi SSE 23.0 mph 36.8 mph N/A   Clear
5:53 PM 80.1 °F 48.9 °F 34% 29.53 in 10.0 mi SSE 24.2 mph 33.4 mph N/A   Clear
6:53 PM 78.1 °F 50.0 °F 37% 29.54 in 10.0 mi SSE 21.9 mph 32.2 mph N/A   Clear
7:53 PM 73.9 °F 52.0 °F 46% 29.55 in 10.0 mi SSE 17.3 mph - N/A   Clear
8:53 PM 73.0 °F 52.0 °F 48% 29.54 in 10.0 mi SE 18.4 mph 26.5 mph N/A   Clear
9:53 PM 71.1 °F 52.0 °F 51% 29.53 in 10.0 mi SE 21.9 mph 28.8 mph N/A   Clear
10:53 PM 70.0 °F 53.1 °F 55% 29.51 in 10.0 mi SSE 27.6 mph 39.1 mph N/A   Clear
11:53 PM 69.1 °F 54.0 °F 58% 29.49 in 10.0 mi SSE 24.2 mph 35.7 mph N/A   Clear